Wetterdaten: Sonntag, 26.07.2015
Datum Zeit Auen-Temp. Temp gefhlt Luftfeuchte Luftdruck Regen Wind Richtung Richtung Taupunkt Windben
26.07.2015 00:00 14,0 C 13,9 C 59 % 1012,8 hPa 0,0 mm 7,3 km/h (2 Bft) W-NW 292 6,1 C 9,8 km/h (2 Bft)
26.07.2015 00:05 13,9 C 13,8 C 59 % 1012,8 hPa 0,0 mm 9,6 km/h (2 Bft) SO 135 6,0 C 7,3 km/h (2 Bft)
26.07.2015 00:10 13,8 C 13,8 C 59 % 1012,9 hPa 0,0 mm 7,3 km/h (2 Bft) W 270 5,9 C 8,5 km/h (2 Bft)
26.07.2015 00:15 13,8 C 13,7 C 60 % 1012,9 hPa 0,0 mm 5,2 km/h (1 Bft) W 270 6,2 C 6,0 km/h (2 Bft)
26.07.2015 00:20 13,7 C 13,6 C 60 % 1012,9 hPa 0,0 mm 3,9 km/h (1 Bft) NW 315 6,1 C 11,1 km/h (2 Bft)
26.07.2015 00:25 13,7 C 13,6 C 60 % 1012,9 hPa 0,0 mm 4,4 km/h (1 Bft) W 270 6,1 C 4,1 km/h (1 Bft)
26.07.2015 00:30 13,7 C 13,6 C 61 % 1013,1 hPa 0,0 mm 5,4 km/h (1 Bft) SW 225 6,3 C 5,2 km/h (1 Bft)
26.07.2015 00:35 13,6 C 13,5 C 61 % 1013,1 hPa 0,0 mm 3,6 km/h (1 Bft) W-NW 292 6,2 C 0,0 km/h (0 Bft)
26.07.2015 00:40 13,5 C 13,4 C 62 % 1013,1 hPa 0,0 mm 1,3 km/h (1 Bft) W 270 6,4 C 6,7 km/h (2 Bft)
26.07.2015 00:45 13,5 C 13,4 C 62 % 1013,1 hPa 0,0 mm 1,6 km/h (1 Bft) W-SW 247 6,4 C 4,4 km/h (1 Bft)
26.07.2015 00:50 13,5 C 13,4 C 62 % 1013,1 hPa 0,0 mm 3,6 km/h (1 Bft) W-NW 292 6,4 C 5,7 km/h (1 Bft)
26.07.2015 00:55 13,5 C 13,4 C 62 % 1013,1 hPa 0,0 mm 3,4 km/h (1 Bft) NW 315 6,4 C 0,0 km/h (0 Bft)
26.07.2015 01:00 13,4 C 13,3 C 62 % 1013,1 hPa 0,0 mm 2,6 km/h (1 Bft) S 180 6,3 C 6,7 km/h (2 Bft)
26.07.2015 01:05 13,4 C 13,3 C 63 % 1013,1 hPa 0,0 mm 2,8 km/h (1 Bft) SW 225 6,5 C 7,5 km/h (2 Bft)
26.07.2015 01:10 13,3 C 13,2 C 63 % 1013,1 hPa 0,0 mm 2,6 km/h (1 Bft) W-NW 292 6,4 C 7,8 km/h (2 Bft)
26.07.2015 01:15 13,2 C 13,1 C 63 % 1013,1 hPa 0,0 mm 2,6 km/h (1 Bft) W 270 6,3 C 3,4 km/h (1 Bft)
26.07.2015 01:20 13,2 C 13,1 C 63 % 1013,1 hPa 0,0 mm 4,9 km/h (1 Bft) W 270 6,3 C 16,1 km/h (3 Bft)
26.07.2015 01:25 13,1 C 13,0 C 63 % 1013,1 hPa 0,0 mm 4,9 km/h (1 Bft) W 270 6,2 C 6,5 km/h (2 Bft)
26.07.2015 01:30 13,0 C 12,9 C 64 % 1013,2 hPa 0,0 mm 7,8 km/h (2 Bft) NW 315 6,4 C 17,9 km/h (3 Bft)
26.07.2015 01:35 13,0 C 12,9 C 64 % 1013,2 hPa 0,0 mm 8,0 km/h (2 Bft) W 270 6,4 C 15,8 km/h (3 Bft)
26.07.2015 01:40 12,9 C 12,8 C 65 % 1013,2 hPa 0,0 mm 6,0 km/h (2 Bft) W 270 6,5 C 3,6 km/h (1 Bft)
26.07.2015 01:45 12,9 C 12,8 C 65 % 1013,2 hPa 0,0 mm 5,2 km/h (1 Bft) W 270 6,5 C 7,5 km/h (2 Bft)
26.07.2015 01:50 12,8 C 12,7 C 65 % 1013,2 hPa 0,0 mm 4,1 km/h (1 Bft) W-SW 247 6,4 C 0,0 km/h (0 Bft)
26.07.2015 01:55 12,8 C 12,7 C 65 % 1013,2 hPa 0,0 mm 2,8 km/h (1 Bft) W 270 6,4 C 0,0 km/h (0 Bft)
26.07.2015 02:00 12,7 C 12,6 C 66 % 1013,2 hPa 0,0 mm 0,8 km/h (0 Bft) W 270 6,5 C 2,8 km/h (1 Bft)
26.07.2015 02:05 12,7 C 12,6 C 66 % 1013,2 hPa 0,0 mm 1,6 km/h (1 Bft) W-SW 247 6,5 C 3,6 km/h (1 Bft)
26.07.2015 02:10 12,7 C 12,6 C 66 % 1013,2 hPa 0,0 mm 1,6 km/h (1 Bft) NW 315 6,5 C 0,0 km/h (0 Bft)
26.07.2015 02:15 12,6 C 12,5 C 66 % 1013,2 hPa 0,0 mm 2,1 km/h (1 Bft) W 270 6,4 C 6,0 km/h (2 Bft)
26.07.2015 02:20 12,5 C 12,4 C 66 % 1013,2 hPa 0,0 mm 1,0 km/h (0 Bft) O-NO 67 6,3 C 0,0 km/h (0 Bft)
26.07.2015 02:25 12,5 C 12,4 C 66 % 1013,2 hPa 0,0 mm 1,0 km/h (0 Bft) SW 225 6,3 C 2,8 km/h (1 Bft)
26.07.2015 02:30 12,5 C 12,4 C 67 % 1013,1 hPa 0,0 mm 0,3 km/h (0 Bft) SW 225 6,5 C 0,0 km/h (0 Bft)
26.07.2015 02:35 12,4 C 12,3 C 67 % 1013,1 hPa 0,0 mm 0,3 km/h (0 Bft) S 180 6,4 C 0,0 km/h (0 Bft)
26.07.2015 02:40 12,4 C 12,3 C 67 % 1013,1 hPa 0,0 mm 0,3 km/h (0 Bft) W-SW 247 6,4 C 0,0 km/h (0 Bft)
26.07.2015 02:45 12,4 C 12,3 C 67 % 1013,1 hPa 0,0 mm 0,5 km/h (0 Bft) SO 135 6,4 C 0,0 km/h (0 Bft)
26.07.2015 02:50 12,4 C 12,2 C 67 % 1013,0 hPa 0,0 mm 1,3 km/h (1 Bft) W 270 6,4 C 0,0 km/h (0 Bft)
26.07.2015 02:53 12,3 C 12,2 C 67 % 1013,0 hPa 0,0 mm 1,6 km/h (1 Bft) N-NW 337 6,4 C 0,0 km/h (0 Bft)
26.07.2015 02:55 12,3 C 12,2 C 67 % 1013,0 hPa 0,0 mm 1,6 km/h (1 Bft) N-NW 337 6,4 C 0,0 km/h (0 Bft)
26.07.2015 03:00 12,2 C 12,1 C 67 % 1013,0 hPa 0,0 mm 0,3 km/h (0 Bft) W 270 6,3 C 0,0 km/h (0 Bft)
26.07.2015 03:05 12,1 C 12,0 C 67 % 1013,0 hPa 0,0 mm 0,3 km/h (0 Bft) W-SW 247 6,2 C 2,6 km/h (1 Bft)
26.07.2015 03:10 12,1 C 11,9 C 68 % 1012,9 hPa 0,0 mm 0,8 km/h (0 Bft) W 270 6,4 C 0,0 km/h (0 Bft)
26.07.2015 03:15 12,0 C 11,9 C 68 % 1012,9 hPa 0,0 mm 0,8 km/h (0 Bft) S 180 6,3 C 0,0 km/h (0 Bft)
26.07.2015 03:20 11,8 C 11,7 C 69 % 1012,9 hPa 0,0 mm 0,3 km/h (0 Bft) W-SW 247 6,3 C 0,0 km/h (0 Bft)
26.07.2015 03:25 11,7 C 11,6 C 69 % 1012,9 hPa 0,0 mm 0,3 km/h (0 Bft) NW 315 6,2 C 0,0 km/h (0 Bft)
26.07.2015 03:30 11,7 C 11,6 C 69 % 1012,9 hPa 0,0 mm 0,3 km/h (0 Bft) S 180 6,2 C 0,0 km/h (0 Bft)
26.07.2015 03:35 11,7 C 11,5 C 69 % 1012,9 hPa 0,0 mm 0,0 km/h (0 Bft) SO 135 6,2 C 0,0 km/h (0 Bft)
26.07.2015 03:40 11,7 C 11,5 C 70 % 1012,9 hPa 0,0 mm 0,0 km/h (0 Bft) SO 135 6,4 C 0,0 km/h (0 Bft)
26.07.2015 03:45 11,7 C 11,5 C 71 % 1012,9 hPa 0,0 mm 0,0 km/h (0 Bft) SO 135 6,6 C 0,0 km/h (0 Bft)
26.07.2015 03:50 11,7 C 11,5 C 71 % 1013,0 hPa 0,0 mm 0,0 km/h (0 Bft) S 180 6,6 C 0,0 km/h (0 Bft)
26.07.2015 03:55 11,6 C 11,4 C 71 % 1013,0 hPa 0,0 mm 0,0 km/h (0 Bft) W-SW 247 6,5 C 0,0 km/h (0 Bft)
26.07.2015 04:00 11,6 C 11,4 C 71 % 1013,0 hPa 0,0 mm 0,0 km/h (0 Bft) O-NO 67 6,5 C 0,0 km/h (0 Bft)
26.07.2015 04:05 11,7 C 11,5 C 71 % 1013,0 hPa 0,0 mm 0,0 km/h (0 Bft) SO 135 6,6 C 0,0 km/h (0 Bft)
26.07.2015 04:10 11,5 C 11,3 C 72 % 1012,8 hPa 0,0 mm 0,3 km/h (0 Bft) SO 135 6,6 C 2,8 km/h (1 Bft)
26.07.2015 04:15 11,4 C 11,2 C 72 % 1012,8 hPa 0,0 mm 0,5 km/h (0 Bft) SO 135 6,5 C 0,0 km/h (0 Bft)
26.07.2015 04:20 11,0 C 10,8 C 72 % 1012,8 hPa 0,0 mm 0,3 km/h (0 Bft) S-SO 157 6,2 C 0,0 km/h (0 Bft)
26.07.2015 04:25 10,9 C 10,7 C 72 % 1012,8 hPa 0,0 mm 0,3 km/h (0 Bft) S-SO 157 6,1 C 2,8 km/h (1 Bft)
26.07.2015 04:30 10,6 C 10,4 C 73 % 1012,8 hPa 0,0 mm 1,0 km/h (0 Bft) S-SO 157 6,0 C 0,0 km/h (0 Bft)
26.07.2015 04:35 10,5 C 10,3 C 73 % 1012,8 hPa 0,0 mm 1,3 km/h (1 Bft) SO 135 5,9 C 3,9 km/h (1 Bft)
26.07.2015 04:40 10,4 C 10,1 C 74 % 1012,8 hPa 0,0 mm 1,3 km/h (1 Bft) O 90 6,0 C 0,0 km/h (0 Bft)
26.07.2015 04:45 10,3 C 10,2 C 73 % 1012,8 hPa 0,0 mm 1,3 km/h (1 Bft) O-SO 112 5,7 C 0,0 km/h (0 Bft)
26.07.2015 04:50 10,4 C 10,4 C 74 % 1012,8 hPa 0,0 mm 0,0 km/h (0 Bft) S 180 6,0 C 0,0 km/h (0 Bft)
26.07.2015 04:55 10,4 C 10,4 C 74 % 1012,8 hPa 0,0 mm 0,0 km/h (0 Bft) O-SO 112 6,0 C 0,0 km/h (0 Bft)
26.07.2015 05:00 10,4 C 10,4 C 74 % 1012,8 hPa 0,0 mm 0,0 km/h (0 Bft) S-SO 157 6,0 C 2,6 km/h (1 Bft)
26.07.2015 05:05 10,3 C 10,3 C 74 % 1012,8 hPa 0,0 mm 0,3 km/h (0 Bft) SO 135 5,9 C 2,6 km/h (1 Bft)
26.07.2015 05:10 10,3 C 10,3 C 74 % 1012,8 hPa 0,0 mm 0,5 km/h (0 Bft) O-SO 112 5,9 C 0,0 km/h (0 Bft)
26.07.2015 05:15 10,2 C 10,1 C 74 % 1012,8 hPa 0,0 mm 0,8 km/h (0 Bft) S-SO 157 5,8 C 3,9 km/h (1 Bft)
26.07.2015 05:20 10,2 C 10,0 C 74 % 1012,8 hPa 0,0 mm 1,0 km/h (0 Bft) SO 135 5,8 C 0,0 km/h (0 Bft)
26.07.2015 05:25 10,0 C 9,9 C 74 % 1012,8 hPa 0,0 mm 1,0 km/h (0 Bft) NO 45 5,6 C 0,0 km/h (0 Bft)
26.07.2015 05:30 9,6 C 9,5 C 75 % 1012,8 hPa 0,0 mm 0,0 km/h (0 Bft) NO 45 5,4 C 0,0 km/h (0 Bft)
26.07.2015 05:35 9,5 C 9,3 C 75 % 1012,8 hPa 0,0 mm 0,0 km/h (0 Bft) NW 315 5,3 C 0,0 km/h (0 Bft)
26.07.2015 05:40 9,5 C 9,3 C 75 % 1012,8 hPa 0,0 mm 0,0 km/h (0 Bft) NW 315 5,3 C 0,0 km/h (0 Bft)
26.07.2015 05:45 9,3 C 9,1 C 75 % 1012,8 hPa 0,0 mm 0,0 km/h (0 Bft) NW 315 5,1 C 0,0 km/h (0 Bft)
26.07.2015 05:50 9,1 C 8,8 C 75 % 1012,7 hPa 0,0 mm 0,0 km/h (0 Bft) S 180 4,9 C 0,0 km/h (0 Bft)
26.07.2015 05:55 9,0 C 8,8 C 75 % 1012,7 hPa 0,0 mm 0,3 km/h (0 Bft) O 90 4,8 C 0,0 km/h (0 Bft)
26.07.2015 06:00 8,7 C 8,5 C 76 % 1012,7 hPa 0,0 mm 0,3 km/h (0 Bft) O-SO 112 4,7 C 0,0 km/h (0 Bft)
26.07.2015 06:05 8,7 C 8,4 C 76 % 1012,7 hPa 0,0 mm 0,0 km/h (0 Bft) NO 45 4,7 C 0,0 km/h (0 Bft)
26.07.2015 06:10 8,3 C 8,2 C 76 % 1012,8 hPa 0,0 mm 0,0 km/h (0 Bft) NW 315 4,3 C 0,0 km/h (0 Bft)
26.07.2015 06:15 8,3 C 8,1 C 76 % 1012,8 hPa 0,0 mm 0,0 km/h (0 Bft) S 180 4,3 C 0,0 km/h (0 Bft)
26.07.2015 06:20 8,2 C 8,3 C 77 % 1012,8 hPa 0,0 mm 0,0 km/h (0 Bft) O-SO 112 4,4 C 0,0 km/h (0 Bft)
26.07.2015 06:25 8,4 C 8,3 C 77 % 1012,8 hPa 0,0 mm 0,0 km/h (0 Bft) O-SO 112 4,6 C 0,0 km/h (0 Bft)
26.07.2015 06:30 8,2 C 8,1 C 77 % 1012,8 hPa 0,0 mm 0,0 km/h (0 Bft) O 90 4,4 C 0,0 km/h (0 Bft)
26.07.2015 06:35 8,1 C 8,0 C 77 % 1012,8 hPa 0,0 mm 0,0 km/h (0 Bft) S-SO 157 4,3 C 0,0 km/h (0 Bft)
26.07.2015 06:40 8,2 C 8,1 C 77 % 1012,8 hPa 0,0 mm 0,0 km/h (0 Bft) O 90 4,4 C 0,0 km/h (0 Bft)
26.07.2015 06:45 8,4 C 8,9 C 77 % 1012,8 hPa 0,0 mm 0,0 km/h (0 Bft) O-SO 112 4,6 C 0,0 km/h (0 Bft)
26.07.2015 06:50 8,8 C 11,0 C 78 % 1012,9 hPa 0,0 mm 0,0 km/h (0 Bft) O-NO 67 5,2 C 0,0 km/h (0 Bft)
26.07.2015 06:55 9,3 C 11,9 C 77 % 1012,9 hPa 0,0 mm 0,0 km/h (0 Bft) S 180 5,5 C 0,0 km/h (0 Bft)
26.07.2015 07:00 10,2 C 14,5 C 76 % 1012,9 hPa 0,0 mm 0,0 km/h (0 Bft) O-NO 67 6,2 C 0,0 km/h (0 Bft)
26.07.2015 07:05 10,4 C 15,7 C 76 % 1012,9 hPa 0,0 mm 0,0 km/h (0 Bft) SO 135 6,4 C 0,0 km/h (0 Bft)
26.07.2015 07:10 10,8 C 17,4 C 75 % 1013,1 hPa 0,0 mm 0,0 km/h (0 Bft) S-SO 157 6,5 C 0,0 km/h (0 Bft)
26.07.2015 07:15 11,0 C 18,3 C 74 % 1013,1 hPa 0,0 mm 0,0 km/h (0 Bft) N-NO 22 6,5 C 0,0 km/h (0 Bft)
26.07.2015 07:20 11,7 C 19,5 C 74 % 1013,1 hPa 0,0 mm 0,0 km/h (0 Bft) NO 45 7,2 C 0,0 km/h (0 Bft)
26.07.2015 07:25 12,1 C 20,1 C 73 % 1013,1 hPa 0,0 mm 0,0 km/h (0 Bft) N-NO 22 7,4 C 0,0 km/h (0 Bft)
26.07.2015 07:30 12,6 C 20,6 C 71 % 1012,8 hPa 0,0 mm 0,0 km/h (0 Bft) O-SO 112 7,5 C 0,0 km/h (0 Bft)
26.07.2015 07:35 12,8 C 20,9 C 69 % 1012,8 hPa 0,0 mm 0,0 km/h (0 Bft) NO 45 7,3 C 0,0 km/h (0 Bft)
26.07.2015 07:40 13,3 C 21,1 C 68 % 1012,8 hPa 0,0 mm 0,3 km/h (0 Bft) W-NW 292 7,5 C 5,7 km/h (1 Bft)
26.07.2015 07:45 13,5 C 21,2 C 67 % 1012,8 hPa 0,0 mm 0,3 km/h (0 Bft) O-NO 67 7,5 C 0,0 km/h (0 Bft)
26.07.2015 07:50 13,8 C 21,4 C 66 % 1012,3 hPa 0,0 mm 1,0 km/h (0 Bft) N-NO 22 7,6 C 4,9 km/h (1 Bft)
26.07.2015 07:55 14,1 C 21,0 C 65 % 1012,3 hPa 0,0 mm 1,8 km/h (1 Bft) N-NO 22 7,6 C 5,7 km/h (1 Bft)
26.07.2015 08:00 14,3 C 20,7 C 64 % 1012,3 hPa 0,0 mm 3,4 km/h (1 Bft) NO 45 7,6 C 4,1 km/h (1 Bft)
26.07.2015 08:05 14,6 C 20,9 C 64 % 1012,3 hPa 0,0 mm 2,6 km/h (1 Bft) O-NO 67 7,9 C 0,0 km/h (0 Bft)
26.07.2015 08:10 14,5 C 21,1 C 63 % 1012,1 hPa 0,0 mm 2,6 km/h (1 Bft) NO 45 7,5 C 6,2 km/h (2 Bft)
26.07.2015 08:15 14,5 C 20,9 C 63 % 1012,1 hPa 0,0 mm 3,6 km/h (1 Bft) O 90 7,5 C 3,1 km/h (1 Bft)
26.07.2015 08:20 14,4 C 20,6 C 62 % 1012,1 hPa 0,0 mm 4,9 km/h (1 Bft) NO 45 7,2 C 9,6 km/h (2 Bft)
26.07.2015 08:25 14,5 C 20,4 C 62 % 1012,1 hPa 0,0 mm 6,0 km/h (2 Bft) NO 45 7,3 C 7,8 km/h (2 Bft)
26.07.2015 08:30 14,7 C 20,3 C 61 % 1012,4 hPa 0,0 mm 7,0 km/h (2 Bft) NO 45 7,3 C 8,3 km/h (2 Bft)
26.07.2015 08:35 14,7 C 20,3 C 61 % 1012,4 hPa 0,0 mm 6,7 km/h (2 Bft) NO 45 7,3 C 9,3 km/h (2 Bft)
26.07.2015 08:40 14,9 C 20,6 C 60 % 1012,4 hPa 0,0 mm 5,7 km/h (1 Bft) N-NO 22 7,2 C 7,5 km/h (2 Bft)
26.07.2015 08:45 14,9 C 20,8 C 60 % 1012,4 hPa 0,0 mm 5,2 km/h (1 Bft) N-NO 22 7,2 C 9,3 km/h (2 Bft)
26.07.2015 08:50 15,0 C 21,1 C 60 % 1012,6 hPa 0,0 mm 5,2 km/h (1 Bft) NW 315 7,3 C 5,4 km/h (1 Bft)
26.07.2015 08:54 15,3 C 21,5 C 59 % 1012,6 hPa 0,0 mm 5,4 km/h (1 Bft) N 360 7,3 C 5,4 km/h (1 Bft)
26.07.2015 09:00 15,6 C 21,8 C 59 % 1012,6 hPa 0,0 mm 5,2 km/h (1 Bft) N-NO 22 7,6 C 10,4 km/h (2 Bft)
26.07.2015 09:05 15,5 C 21,6 C 59 % 1012,6 hPa 0,0 mm 5,7 km/h (1 Bft) W-NW 292 7,5 C 2,8 km/h (1 Bft)
26.07.2015 09:10 15,7 C 21,5 C 59 % 1012,9 hPa 0,0 mm 6,2 km/h (2 Bft) N-NW 337 7,7 C 0,0 km/h (0 Bft)
26.07.2015 09:15 15,9 C 21,9 C 59 % 1012,9 hPa 0,0 mm 6,2 km/h (2 Bft) SO 135 7,9 C 10,1 km/h (2 Bft)
26.07.2015 09:20 15,9 C 21,9 C 59 % 1012,9 hPa 0,0 mm 6,2 km/h (2 Bft) N-NO 22 7,9 C 8,5 km/h (2 Bft)
26.07.2015 09:25 16,0 C 22,1 C 58 % 1012,9 hPa 0,0 mm 5,7 km/h (1 Bft) N-NO 22 7,7 C 5,7 km/h (1 Bft)
26.07.2015 09:30 15,9 C 22,2 C 59 % 1013,1 hPa 0,0 mm 4,1 km/h (1 Bft) N-NW 337 7,9 C 2,8 km/h (1 Bft)
26.07.2015 09:35 16,3 C 23,0 C 58 % 1013,1 hPa 0,0 mm 3,6 km/h (1 Bft) N-NO 22 8,0 C 6,2 km/h (2 Bft)
26.07.2015 09:40 15,9 C 22,5 C 58 % 1013,1 hPa 0,0 mm 4,7 km/h (1 Bft) O-NO 67 7,6 C 9,6 km/h (2 Bft)
26.07.2015 09:45 16,1 C 22,4 C 57 % 1013,1 hPa 0,0 mm 5,7 km/h (1 Bft) N-NO 22 7,6 C 9,6 km/h (2 Bft)
26.07.2015 09:50 16,2 C 22,0 C 57 % 1013,4 hPa 0,0 mm 7,5 km/h (2 Bft) O-NO 67 7,7 C 12,2 km/h (2 Bft)
26.07.2015 09:55 16,1 C 21,7 C 57 % 1013,4 hPa 0,0 mm 7,8 km/h (2 Bft) N 360 7,6 C 8,3 km/h (2 Bft)
26.07.2015 10:00 16,3 C 22,0 C 57 % 1013,4 hPa 0,0 mm 6,2 km/h (2 Bft) N-NW 337 7,8 C 4,9 km/h (1 Bft)
26.07.2015 10:05 16,6 C 22,5 C 57 % 1013,4 hPa 0,0 mm 5,2 km/h (1 Bft) N-NO 22 8,0 C 6,5 km/h (2 Bft)
26.07.2015 10:10 16,8 C 22,9 C 57 % 1013,4 hPa 0,0 mm 4,7 km/h (1 Bft) NO 45 8,2 C 10,4 km/h (2 Bft)
26.07.2015 10:15 16,9 C 22,8 C 57 % 1013,4 hPa 0,0 mm 6,0 km/h (2 Bft) N 360 8,3 C 7,8 km/h (2 Bft)
26.07.2015 10:20 16,9 C 22,4 C 56 % 1013,4 hPa 0,0 mm 7,3 km/h (2 Bft) NO 45 8,1 C 6,7 km/h (2 Bft)
26.07.2015 10:25 17,0 C 22,3 C 56 % 1013,4 hPa 0,0 mm 6,0 km/h (2 Bft) O-NO 67 8,2 C 7,3 km/h (2 Bft)
26.07.2015 10:30 16,9 C 22,4 C 56 % 1012,9 hPa 0,0 mm 6,2 km/h (2 Bft) N-NO 22 8,1 C 19,7 km/h (3 Bft)
26.07.2015 10:35 16,8 C 21,8 C 56 % 1012,9 hPa 0,0 mm 7,5 km/h (2 Bft) NW 315 8,0 C 7,5 km/h (2 Bft)
26.07.2015 10:40 17,1 C 21,9 C 56 % 1012,9 hPa 0,0 mm 8,3 km/h (2 Bft) NO 45 8,3 C 7,3 km/h (2 Bft)
26.07.2015 10:45 17,1 C 22,3 C 56 % 1012,9 hPa 0,0 mm 7,0 km/h (2 Bft) N 360 8,3 C 9,1 km/h (2 Bft)
26.07.2015 10:50 17,1 C 22,1 C 56 % 1013,0 hPa 0,0 mm 7,3 km/h (2 Bft) O-NO 67 8,3 C 12,7 km/h (3 Bft)
26.07.2015 10:55 17,2 C 22,4 C 56 % 1013,0 hPa 0,0 mm 6,5 km/h (2 Bft) N 360 8,3 C 9,6 km/h (2 Bft)
26.07.2015 11:00 17,1 C 22,3 C 55 % 1013,0 hPa 0,0 mm 6,7 km/h (2 Bft) NO 45 8,0 C 12,4 km/h (3 Bft)
26.07.2015 11:05 17,0 C 22,1 C 55 % 1013,0 hPa 0,0 mm 8,5 km/h (2 Bft) SW 225 7,9 C 3,6 km/h (1 Bft)
26.07.2015 11:10 17,2 C 22,5 C 56 % 1012,8 hPa 0,0 mm 8,0 km/h (2 Bft) NO 45 8,3 C 10,1 km/h (2 Bft)
26.07.2015 11:15 17,5 C 22,5 C 56 % 1012,8 hPa 0,0 mm 7,8 km/h (2 Bft) N-NO 22 8,6 C 11,4 km/h (2 Bft)
26.07.2015 11:20 17,5 C 22,4 C 55 % 1012,8 hPa 0,0 mm 9,6 km/h (2 Bft) N-NW 337 8,4 C 11,4 km/h (2 Bft)
26.07.2015 11:25 17,5 C 22,4 C 55 % 1012,8 hPa 0,0 mm 9,6 km/h (2 Bft) NO 45 8,4 C 12,7 km/h (3 Bft)
26.07.2015 11:30 17,4 C 22,3 C 55 % 1012,6 hPa 0,0 mm 8,5 km/h (2 Bft) N 360 8,3 C 9,1 km/h (2 Bft)
26.07.2015 11:35 17,4 C 21,9 C 55 % 1012,6 hPa 0,0 mm 9,6 km/h (2 Bft) O-NO 67 8,3 C 12,2 km/h (2 Bft)
26.07.2015 11:40 17,8 C 22,1 C 55 % 1012,6 hPa 0,0 mm 10,1 km/h (2 Bft) N-NO 22 8,6 C 14,2 km/h (3 Bft)
26.07.2015 11:45 17,9 C 22,3 C 56 % 1012,6 hPa 0,0 mm 9,3 km/h (2 Bft) NW 315 9,0 C 11,9 km/h (2 Bft)
26.07.2015 11:50 18,0 C 22,3 C 54 % 1012,3 hPa 0,0 mm 10,4 km/h (2 Bft) O-NO 67 8,6 C 20,2 km/h (4 Bft)
26.07.2015 11:55 17,9 C 21,9 C 54 % 1012,3 hPa 0,0 mm 10,9 km/h (2 Bft) NO 45 8,5 C 13,7 km/h (3 Bft)
26.07.2015 12:00 18,0 C 22,1 C 55 % 1012,3 hPa 0,0 mm 9,8 km/h (2 Bft) N-NW 337 8,8 C 7,0 km/h (2 Bft)
26.07.2015 12:05 18,2 C 22,4 C 54 % 1012,3 hPa 0,0 mm 8,3 km/h (2 Bft) N 360 8,7 C 7,0 km/h (2 Bft)
26.07.2015 12:10 18,3 C 22,6 C 54 % 1011,6 hPa 0,0 mm 8,5 km/h (2 Bft) W-SW 247 8,8 C 21,0 km/h (4 Bft)
26.07.2015 12:15 18,4 C 22,8 C 55 % 1011,6 hPa 0,0 mm 8,0 km/h (2 Bft) N-NW 337 9,2 C 11,9 km/h (2 Bft)
26.07.2015 12:20 18,7 C 22,8 C 54 % 1011,6 hPa 0,0 mm 8,8 km/h (2 Bft) N-NO 22 9,2 C 9,1 km/h (2 Bft)
26.07.2015 12:25 18,7 C 23,1 C 55 % 1011,6 hPa 0,0 mm 8,5 km/h (2 Bft) N-NO 22 9,5 C 12,9 km/h (3 Bft)
26.07.2015 12:30 18,8 C 23,4 C 53 % 1011,0 hPa 0,0 mm 6,5 km/h (2 Bft) O 90 9,0 C 11,7 km/h (2 Bft)
26.07.2015 12:35 18,7 C 23,4 C 54 % 1011,0 hPa 0,0 mm 7,0 km/h (2 Bft) NO 45 9,2 C 14,0 km/h (3 Bft)
26.07.2015 12:40 18,9 C 23,5 C 54 % 1011,0 hPa 0,0 mm 7,5 km/h (2 Bft) NO 45 9,4 C 6,5 km/h (2 Bft)
26.07.2015 12:45 19,1 C 23,6 C 53 % 1011,0 hPa 0,0 mm 7,5 km/h (2 Bft) O-NO 67 9,3 C 9,8 km/h (2 Bft)
26.07.2015 12:50 18,9 C 23,3 C 53 % 1010,9 hPa 0,0 mm 7,0 km/h (2 Bft) S 180 9,1 C 9,8 km/h (2 Bft)
26.07.2015 12:55 19,0 C 23,6 C 53 % 1010,9 hPa 0,0 mm 6,7 km/h (2 Bft) NO 45 9,2 C 6,7 km/h (2 Bft)
26.07.2015 13:00 19,1 C 23,8 C 52 % 1010,9 hPa 0,0 mm 6,7 km/h (2 Bft) O 90 9,0 C 6,0 km/h (2 Bft)
26.07.2015 13:05 19,2 C 24,0 C 52 % 1010,9 hPa 0,0 mm 8,5 km/h (2 Bft) N-NO 22 9,1 C 19,2 km/h (3 Bft)
26.07.2015 13:10 19,3 C 23,6 C 52 % 1010,4 hPa 0,0 mm 9,8 km/h (2 Bft) NO 45 9,2 C 11,4 km/h (2 Bft)
26.07.2015 13:15 19,5 C 23,7 C 53 % 1010,4 hPa 0,0 mm 9,8 km/h (2 Bft) W 270 9,7 C 7,3 km/h (2 Bft)
26.07.2015 13:20 19,6 C 23,6 C 52 % 1010,4 hPa 0,0 mm 9,3 km/h (2 Bft) NO 45 9,5 C 25,6 km/h (4 Bft)
26.07.2015 13:25 19,3 C 22,9 C 52 % 1010,4 hPa 0,0 mm 11,1 km/h (2 Bft) NO 45 9,2 C 15,8 km/h (3 Bft)
26.07.2015 13:30 19,3 C 22,4 C 52 % 1009,7 hPa 0,0 mm 12,4 km/h (3 Bft) N-NO 22 9,2 C 10,4 km/h (2 Bft)
26.07.2015 13:35 19,7 C 22,4 C 52 % 1009,7 hPa 0,0 mm 11,1 km/h (2 Bft) N-NO 22 9,6 C 19,7 km/h (3 Bft)
26.07.2015 13:40 19,8 C 22,2 C 52 % 1009,7 hPa 0,0 mm 10,4 km/h (2 Bft) NO 45 9,7 C 22,5 km/h (4 Bft)
26.07.2015 13:45 19,6 C 22,1 C 51 % 1009,7 hPa 0,0 mm 11,1 km/h (2 Bft) N-NW 337 9,2 C 9,1 km/h (2 Bft)
26.07.2015 13:50 19,5 C 22,1 C 52 % 1009,5 hPa 0,0 mm 12,7 km/h (3 Bft) N-NO 22 9,4 C 23,8 km/h (4 Bft)
26.07.2015 13:55 19,4 C 22,0 C 53 % 1009,5 hPa 0,0 mm 11,7 km/h (2 Bft) NO 45 9,6 C 19,2 km/h (3 Bft)
26.07.2015 14:00 20,1 C 23,5 C 52 % 1009,5 hPa 0,0 mm 8,8 km/h (2 Bft) NW 315 9,9 C 14,2 km/h (3 Bft)
26.07.2015 14:05 20,2 C 24,1 C 51 % 1009,5 hPa 0,0 mm 9,3 km/h (2 Bft) N-NO 22 9,7 C 12,7 km/h (3 Bft)
26.07.2015 14:10 20,1 C 23,9 C 51 % 1009,1 hPa 0,0 mm 10,9 km/h (2 Bft) O 90 9,6 C 14,0 km/h (3 Bft)
26.07.2015 14:15 20,0 C 23,7 C 51 % 1009,1 hPa 0,0 mm 10,4 km/h (2 Bft) O-NO 67 9,6 C 8,5 km/h (2 Bft)
26.07.2015 14:20 20,1 C 23,5 C 52 % 1009,1 hPa 0,0 mm 9,6 km/h (2 Bft) NO 45 9,9 C 23,0 km/h (4 Bft)
26.07.2015 14:25 20,1 C 23,7 C 51 % 1009,1 hPa 0,0 mm 9,3 km/h (2 Bft) N-NW 337 9,6 C 6,0 km/h (2 Bft)
26.07.2015 14:30 20,0 C 23,8 C 51 % 1008,8 hPa 0,0 mm 8,8 km/h (2 Bft) N-NO 22 9,6 C 12,7 km/h (3 Bft)
26.07.2015 14:35 20,2 C 24,0 C 51 % 1008,8 hPa 0,0 mm 8,3 km/h (2 Bft) N-NO 22 9,7 C 11,1 km/h (2 Bft)
26.07.2015 14:40 20,3 C 24,0 C 51 % 1008,8 hPa 0,0 mm 8,3 km/h (2 Bft) N-NW 337 9,8 C 8,0 km/h (2 Bft)
26.07.2015 14:45 20,3 C 24,3 C 51 % 1008,8 hPa 0,0 mm 7,8 km/h (2 Bft) N-NO 22 9,8 C 8,0 km/h (2 Bft)
26.07.2015 14:50 19,9 C 23,4 C 51 % 1008,5 hPa 0,0 mm 9,1 km/h (2 Bft) N-NW 337 9,5 C 8,5 km/h (2 Bft)
26.07.2015 14:55 19,9 C 22,8 C 52 % 1008,5 hPa 0,0 mm 7,5 km/h (2 Bft) O-NO 67 9,7 C 7,3 km/h (2 Bft)
26.07.2015 15:00 19,9 C 22,8 C 52 % 1008,5 hPa 0,0 mm 7,5 km/h (2 Bft) O-NO 67 9,7 C 7,3 km/h (2 Bft)
26.07.2015 15:05 19,8 C 22,9 C 52 % 1008,5 hPa 0,0 mm 8,5 km/h (2 Bft) SO 135 9,7 C 5,2 km/h (1 Bft)
26.07.2015 15:10 19,8 C 22,9 C 52 % 1008,0 hPa 0,0 mm 7,8 km/h (2 Bft) NW 315 9,7 C 12,4 km/h (3 Bft)
26.07.2015 15:15 19,8 C 22,8 C 52 % 1008,0 hPa 0,0 mm 8,5 km/h (2 Bft) O-NO 67 9,7 C 5,4 km/h (1 Bft)
26.07.2015 15:20 19,9 C 22,8 C 52 % 1008,0 hPa 0,0 mm 8,5 km/h (2 Bft) N-NW 337 9,7 C 11,7 km/h (2 Bft)
26.07.2015 15:25 19,9 C 22,7 C 52 % 1008,0 hPa 0,0 mm 7,3 km/h (2 Bft) O-NO 67 9,7 C 11,4 km/h (2 Bft)
26.07.2015 15:30 20,0 C 22,7 C 52 % 1007,6 hPa 0,0 mm 8,0 km/h (2 Bft) NO 45 9,8 C 7,5 km/h (2 Bft)
26.07.2015 15:35 20,2 C 23,3 C 52 % 1007,6 hPa 0,0 mm 7,3 km/h (2 Bft) N-NW 337 10,0 C 12,4 km/h (3 Bft)
26.07.2015 15:40 20,8 C 25,0 C 52 % 1007,6 hPa 0,0 mm 6,2 km/h (2 Bft) NO 45 10,6 C 11,9 km/h (2 Bft)
26.07.2015 15:45 20,6 C 25,5 C 50 % 1007,6 hPa 0,0 mm 7,0 km/h (2 Bft) O-NO 67 9,8 C 6,7 km/h (2 Bft)
26.07.2015 15:50 20,0 C 24,3 C 52 % 1007,6 hPa 0,0 mm 6,0 km/h (2 Bft) O-SO 112 9,8 C 2,6 km/h (1 Bft)
26.07.2015 15:55 20,0 C 23,8 C 52 % 1007,6 hPa 0,0 mm 3,4 km/h (1 Bft) O-NO 67 9,8 C 7,8 km/h (2 Bft)
26.07.2015 16:00 20,1 C 23,7 C 52 % 1007,6 hPa 0,0 mm 4,9 km/h (1 Bft) NO 45 9,9 C 11,9 km/h (2 Bft)
26.07.2015 16:05 20,1 C 23,6 C 51 % 1007,6 hPa 0,0 mm 7,5 km/h (2 Bft) NO 45 9,6 C 9,8 km/h (2 Bft)
26.07.2015 16:10 20,3 C 23,7 C 51 % 1007,0 hPa 0,0 mm 8,8 km/h (2 Bft) N-NO 22 9,8 C 5,7 km/h (1 Bft)
26.07.2015 16:15 20,4 C 23,9 C 51 % 1007,0 hPa 0,0 mm 7,8 km/h (2 Bft) N-NW 337 9,9 C 12,7 km/h (3 Bft)
26.07.2015 16:20 20,3 C 23,8 C 51 % 1007,0 hPa 0,0 mm 6,5 km/h (2 Bft) O-NO 67 9,8 C 7,8 km/h (2 Bft)
26.07.2015 16:25 20,1 C 23,6 C 51 % 1007,0 hPa 0,0 mm 6,5 km/h (2 Bft) O-NO 67 9,6 C 8,8 km/h (2 Bft)
26.07.2015 16:30 20,0 C 23,3 C 52 % 1006,8 hPa 0,0 mm 6,0 km/h (2 Bft) N-NW 337 9,8 C 10,9 km/h (2 Bft)
26.07.2015 16:35 20,0 C 23,2 C 52 % 1006,8 hPa 0,0 mm 6,5 km/h (2 Bft) NO 45 9,8 C 10,4 km/h (2 Bft)
26.07.2015 16:40 20,0 C 22,7 C 53 % 1006,8 hPa 0,0 mm 6,5 km/h (2 Bft) N-NW 337 10,1 C 11,4 km/h (2 Bft)
26.07.2015 16:45 20,0 C 22,3 C 52 % 1006,8 hPa 0,0 mm 7,0 km/h (2 Bft) NO 45 9,8 C 8,8 km/h (2 Bft)
26.07.2015 16:50 20,0 C 22,3 C 53 % 1006,8 hPa 0,0 mm 4,7 km/h (1 Bft) O-NO 67 10,1 C 2,6 km/h (1 Bft)
26.07.2015 16:55 19,9 C 22,1 C 52 % 1006,8 hPa 0,0 mm 2,6 km/h (1 Bft) S-SO 157 9,7 C 0,0 km/h (0 Bft)
26.07.2015 17:00 19,7 C 21,5 C 52 % 1006,8 hPa 0,0 mm 4,7 km/h (1 Bft) W 270 9,6 C 0,0 km/h (0 Bft)
26.07.2015 17:05 19,8 C 21,5 C 52 % 1006,8 hPa 0,0 mm 5,7 km/h (1 Bft) O-NO 67 9,7 C 6,5 km/h (2 Bft)
26.07.2015 17:10 19,8 C 21,5 C 52 % 1006,3 hPa 0,0 mm 6,2 km/h (2 Bft) N-NW 337 9,7 C 10,6 km/h (2 Bft)
26.07.2015 17:15 19,8 C 21,4 C 51 % 1006,3 hPa 0,0 mm 7,0 km/h (2 Bft) N-NO 22 9,4 C 9,8 km/h (2 Bft)
26.07.2015 17:20 19,8 C 21,2 C 52 % 1006,3 hPa 0,0 mm 7,5 km/h (2 Bft) O-NO 67 9,7 C 8,5 km/h (2 Bft)
26.07.2015 17:25 19,6 C 21,0 C 53 % 1006,3 hPa 0,0 mm 5,4 km/h (1 Bft) N-NO 22 9,8 C 2,6 km/h (1 Bft)
26.07.2015 17:30 19,6 C 21,3 C 53 % 1006,2 hPa 0,0 mm 2,3 km/h (1 Bft) O-NO 67 9,8 C 0,0 km/h (0 Bft)
26.07.2015 17:35 19,6 C 21,5 C 53 % 1006,2 hPa 0,0 mm 1,6 km/h (1 Bft) O 90 9,8 C 0,0 km/h (0 Bft)
26.07.2015 17:40 19,6 C 21,4 C 54 % 1006,2 hPa 0,0 mm 1,0 km/h (0 Bft) O-NO 67 10,0 C 3,6 km/h (1 Bft)
26.07.2015 17:45 19,7 C 21,6 C 54 % 1006,2 hPa 0,0 mm 0,5 km/h (0 Bft) NO 45 10,1 C 0,0 km/h (0 Bft)
26.07.2015 17:50 19,7 C 21,7 C 54 % 1006,1 hPa 0,0 mm 1,8 km/h (1 Bft) NO 45 10,1 C 5,2 km/h (1 Bft)
26.07.2015 17:55 19,7 C 21,7 C 53 % 1006,1 hPa 0,0 mm 2,3 km/h (1 Bft) NO 45 9,8 C 3,1 km/h (1 Bft)
26.07.2015 18:00 19,8 C 21,7 C 54 % 1006,1 hPa 0,0 mm 2,3 km/h (1 Bft) O-SO 112 10,2 C 4,7 km/h (1 Bft)
26.07.2015 18:05 19,8 C 21,7 C 54 % 1006,1 hPa 0,0 mm 1,3 km/h (1 Bft) O-NO 67 10,2 C 0,0 km/h (0 Bft)
26.07.2015 18:10 19,9 C 22,0 C 53 % 1006,1 hPa 0,0 mm 0,8 km/h (0 Bft) S-SO 157 10,0 C 0,0 km/h (0 Bft)
26.07.2015 18:15 19,7 C 21,9 C 54 % 1006,1 hPa 0,0 mm 0,5 km/h (0 Bft) S-SO 157 10,1 C 0,0 km/h (0 Bft)
26.07.2015 18:20 19,5 C 21,4 C 55 % 1006,1 hPa 0,0 mm 0,3 km/h (0 Bft) O-SO 112 10,2 C 0,0 km/h (0 Bft)
26.07.2015 18:25 19,3 C 21,1 C 55 % 1006,1 hPa 0,0 mm 0,3 km/h (0 Bft) N-NO 22 10,0 C 3,1 km/h (1 Bft)
26.07.2015 18:30 19,0 C 20,6 C 55 % 1005,8 hPa 0,0 mm 0,0 km/h (0 Bft) O 90 9,8 C 0,0 km/h (0 Bft)
26.07.2015 18:35 18,9 C 20,5 C 55 % 1005,8 hPa 0,0 mm 0,0 km/h (0 Bft) S-SO 157 9,7 C 0,0 km/h (0 Bft)
26.07.2015 18:40 18,9 C 20,4 C 56 % 1005,8 hPa 0,0 mm 0,5 km/h (0 Bft) O-NO 67 9,9 C 0,0 km/h (0 Bft)
26.07.2015 18:45 18,7 C 20,2 C 56 % 1005,8 hPa 0,0 mm 0,5 km/h (0 Bft) O-NO 67 9,7 C 0,0 km/h (0 Bft)
26.07.2015 18:50 18,7 C 20,0 C 58 % 1005,8 hPa 0,0 mm 0,0 km/h (0 Bft) SO 135 10,3 C 0,0 km/h (0 Bft)
26.07.2015 18:55 18,6 C 19,9 C 59 % 1005,8 hPa 0,0 mm 0,0 km/h (0 Bft) O-SO 112 10,4 C 0,0 km/h (0 Bft)
26.07.2015 19:00 18,4 C 19,8 C 59 % 1005,8 hPa 0,0 mm 0,0 km/h (0 Bft) SO 135 10,2 C 0,0 km/h (0 Bft)
26.07.2015 19:05 18,3 C 19,7 C 59 % 1005,8 hPa 0,0 mm 0,0 km/h (0 Bft) SO 135 10,1 C 0,0 km/h (0 Bft)
26.07.2015 19:10 18,2 C 19,5 C 59 % 1005,4 hPa 0,0 mm 0,0 km/h (0 Bft) O-SO 112 10,1 C 0,0 km/h (0 Bft)
26.07.2015 19:15 18,2 C 19,4 C 59 % 1005,4 hPa 0,0 mm 0,0 km/h (0 Bft) S-SO 157 10,1 C 0,0 km/h (0 Bft)
26.07.2015 19:20 18,1 C 19,2 C 59 % 1005,4 hPa 0,0 mm 0,0 km/h (0 Bft) S 180 10,0 C 0,0 km/h (0 Bft)
26.07.2015 19:25 18,0 C 19,0 C 60 % 1005,4 hPa 0,0 mm 0,0 km/h (0 Bft) S-SO 157 10,1 C 0,0 km/h (0 Bft)
26.07.2015 19:30 18,0 C 18,9 C 60 % 1005,4 hPa 0,0 mm 0,0 km/h (0 Bft) O-SO 112 10,1 C 0,0 km/h (0 Bft)
26.07.2015 19:35 18,0 C 18,9 C 60 % 1005,4 hPa 0,0 mm 0,0 km/h (0 Bft) O-SO 112 10,1 C 0,0 km/h (0 Bft)
26.07.2015 19:40 17,9 C 18,6 C 61 % 1005,4 hPa 0,0 mm 0,0 km/h (0 Bft) O 90 10,3 C 0,0 km/h (0 Bft)
26.07.2015 19:45 17,8 C 18,5 C 62 % 1005,4 hPa 0,0 mm 0,0 km/h (0 Bft) SO 135 10,4 C 0,0 km/h (0 Bft)
26.07.2015 19:50 17,8 C 18,4 C 62 % 1005,2 hPa 0,0 mm 0,0 km/h (0 Bft) SO 135 10,4 C 0,0 km/h (0 Bft)
26.07.2015 19:55 17,7 C 18,2 C 62 % 1005,2 hPa 0,0 mm 0,0 km/h (0 Bft) S 180 10,3 C 0,0 km/h (0 Bft)
26.07.2015 20:00 17,5 C 18,0 C 62 % 1005,2 hPa 0,0 mm 0,0 km/h (0 Bft) S-SO 157 10,1 C 0,0 km/h (0 Bft)
26.07.2015 20:05 17,4 C 17,9 C 62 % 1005,2 hPa 0,0 mm 0,0 km/h (0 Bft) SO 135 10,0 C 0,0 km/h (0 Bft)
26.07.2015 20:10 17,4 C 17,9 C 62 % 1005,1 hPa 0,0 mm 0,0 km/h (0 Bft) S-SO 157 10,0 C 0,0 km/h (0 Bft)
26.07.2015 20:15 17,3 C 17,7 C 64 % 1005,1 hPa 0,0 mm 0,3 km/h (0 Bft) S-SO 157 10,4 C 2,6 km/h (1 Bft)
26.07.2015 20:20 17,2 C 17,4 C 65 % 1005,1 hPa 0,0 mm 1,3 km/h (1 Bft) S-SO 157 10,6 C 2,8 km/h (1 Bft)
26.07.2015 20:25 17,1 C 17,3 C 66 % 1005,1 hPa 0,0 mm 1,0 km/h (0 Bft) S 180 10,7 C 0,0 km/h (0 Bft)
26.07.2015 20:30 16,9 C 17,1 C 69 % 1005,1 hPa 0,0 mm 0,8 km/h (0 Bft) S 180 11,2 C 0,0 km/h (0 Bft)
26.07.2015 20:35 16,8 C 17,0 C 68 % 1005,1 hPa 0,0 mm 0,5 km/h (0 Bft) S-SO 157 10,9 C 0,0 km/h (0 Bft)
26.07.2015 20:40 16,7 C 16,7 C 68 % 1005,1 hPa 0,0 mm 0,0 km/h (0 Bft) S-SO 157 10,8 C 0,0 km/h (0 Bft)
26.07.2015 20:45 16,5 C 16,6 C 68 % 1005,1 hPa 0,0 mm 0,0 km/h (0 Bft) S-SO 157 10,6 C 0,0 km/h (0 Bft)
26.07.2015 20:50 16,3 C 16,4 C 69 % 1005,1 hPa 0,0 mm 0,3 km/h (0 Bft) S 180 10,6 C 3,9 km/h (1 Bft)
26.07.2015 20:55 16,2 C 16,3 C 69 % 1005,1 hPa 0,0 mm 1,6 km/h (1 Bft) SW 225 10,5 C 6,2 km/h (2 Bft)
26.07.2015 20:57 16,2 C 16,3 C 69 % 1005,1 hPa 0,0 mm 1,6 km/h (1 Bft) SW 225 10,5 C 6,2 km/h (2 Bft)
26.07.2015 21:00 16,2 C 16,3 C 69 % 1005,1 hPa 0,0 mm 1,6 km/h (1 Bft) SW 225 10,5 C 6,2 km/h (2 Bft)
26.07.2015 21:05 16,2 C 16,3 C 69 % 1005,1 hPa 0,0 mm 2,8 km/h (1 Bft) S-SO 157 10,5 C 5,4 km/h (1 Bft)
26.07.2015 21:10 16,2 C 16,1 C 69 % 1005,4 hPa 0,0 mm 5,2 km/h (1 Bft) S 180 10,5 C 5,2 km/h (1 Bft)
26.07.2015 21:15 16,0 C 15,9 C 69 % 1005,4 hPa 0,0 mm 3,6 km/h (1 Bft) SW 225 10,3 C 3,9 km/h (1 Bft)
26.07.2015 21:20 15,8 C 15,7 C 70 % 1005,4 hPa 0,0 mm 0,8 km/h (0 Bft) O-SO 112 10,3 C 0,0 km/h (0 Bft)
26.07.2015 21:25 15,6 C 15,4 C 71 % 1005,4 hPa 0,0 mm 0,3 km/h (0 Bft) O-SO 112 10,4 C 0,0 km/h (0 Bft)
26.07.2015 21:30 15,5 C 15,2 C 72 % 1005,4 hPa 0,0 mm 0,0 km/h (0 Bft) SO 135 10,5 C 0,0 km/h (0 Bft)
26.07.2015 21:35 15,4 C 15,1 C 72 % 1005,4 hPa 0,0 mm 0,0 km/h (0 Bft) S 180 10,4 C 0,0 km/h (0 Bft)
26.07.2015 21:40 15,5 C 15,2 C 72 % 1005,4 hPa 0,0 mm 0,3 km/h (0 Bft) S-SW 202 10,5 C 0,0 km/h (0 Bft)
26.07.2015 21:45 15,6 C 15,3 C 72 % 1005,4 hPa 0,0 mm 0,8 km/h (0 Bft) S 180 10,6 C 9,6 km/h (2 Bft)
26.07.2015 21:50 15,9 C 15,6 C 71 % 1006,0 hPa 0,0 mm 2,8 km/h (1 Bft) S 180 10,6 C 3,1 km/h (1 Bft)
26.07.2015 21:55 15,8 C 15,5 C 71 % 1006,0 hPa 0,0 mm 2,6 km/h (1 Bft) S 180 10,6 C 0,0 km/h (0 Bft)
26.07.2015 22:00 15,7 C 15,3 C 71 % 1006,0 hPa 0,0 mm 3,1 km/h (1 Bft) SW 225 10,5 C 8,5 km/h (2 Bft)
26.07.2015 22:05 15,7 C 15,2 C 71 % 1006,0 hPa 0,0 mm 4,9 km/h (1 Bft) SW 225 10,5 C 6,2 km/h (2 Bft)
26.07.2015 22:10 15,5 C 15,1 C 71 % 1006,4 hPa 0,0 mm 6,0 km/h (2 Bft) S 180 10,3 C 10,4 km/h (2 Bft)
26.07.2015 22:15 15,4 C 15,0 C 72 % 1006,4 hPa 0,0 mm 6,7 km/h (2 Bft) W-NW 292 10,4 C 7,8 km/h (2 Bft)
26.07.2015 22:20 15,0 C 14,6 C 73 % 1006,4 hPa 0,0 mm 6,2 km/h (2 Bft) W-SW 247 10,2 C 3,4 km/h (1 Bft)
26.07.2015 22:25 14,8 C 14,4 C 74 % 1006,4 hPa 0,0 mm 4,9 km/h (1 Bft) S 180 10,2 C 13,7 km/h (3 Bft)
26.07.2015 22:30 14,5 C 14,1 C 75 % 1006,5 hPa 0,0 mm 4,4 km/h (1 Bft) S 180 10,1 C 9,8 km/h (2 Bft)
26.07.2015 22:35 14,3 C 13,9 C 75 % 1006,5 hPa 0,0 mm 4,9 km/h (1 Bft) S 180 9,9 C 3,1 km/h (1 Bft)
26.07.2015 22:40 14,1 C 13,8 C 76 % 1006,5 hPa 0,7 mm 3,6 km/h (1 Bft) SW 225 9,9 C 3,6 km/h (1 Bft)
26.07.2015 22:45 14,0 C 13,7 C 77 % 1006,5 hPa 0,0 mm 2,8 km/h (1 Bft) N-NW 337 10,0 C 3,6 km/h (1 Bft)
26.07.2015 22:50 13,8 C 13,5 C 78 % 1006,2 hPa 0,0 mm 1,3 km/h (1 Bft) SW 225 10,0 C 0,0 km/h (0 Bft)
26.07.2015 22:55 13,6 C 13,3 C 79 % 1006,2 hPa 0,7 mm 0,8 km/h (0 Bft) SW 225 10,0 C 0,0 km/h (0 Bft)
26.07.2015 23:00 13,5 C 13,3 C 79 % 1006,2 hPa 0,7 mm 0,3 km/h (0 Bft) O-NO 67 9,9 C 0,0 km/h (0 Bft)
26.07.2015 23:05 13,4 C 13,2 C 80 % 1006,2 hPa 0,0 mm 0,0 km/h (0 Bft) O-NO 67 10,0 C 0,0 km/h (0 Bft)
26.07.2015 23:10 13,3 C 13,1 C 80 % 1005,9 hPa 0,0 mm 0,0 km/h (0 Bft) SO 135 9,9 C 0,0 km/h (0 Bft)
26.07.2015 23:15 13,3 C 13,1 C 81 % 1005,9 hPa 0,0 mm 0,0 km/h (0 Bft) S-SW 202 10,1 C 0,0 km/h (0 Bft)
26.07.2015 23:20 13,3 C 13,1 C 81 % 1005,9 hPa 0,0 mm 0,0 km/h (0 Bft) SW 225 10,1 C 0,0 km/h (0 Bft)
26.07.2015 23:25 13,2 C 13,1 C 81 % 1005,9 hPa 0,0 mm 0,0 km/h (0 Bft) SO 135 10,0 C 0,0 km/h (0 Bft)
26.07.2015 23:30 13,2 C 13,0 C 83 % 1005,3 hPa 0,0 mm 0,5 km/h (0 Bft) O-SO 112 10,4 C 0,0 km/h (0 Bft)
26.07.2015 23:35 13,2 C 13,0 C 84 % 1005,3 hPa 0,0 mm 0,5 km/h (0 Bft) O 90 10,6 C 0,0 km/h (0 Bft)
26.07.2015 23:40 13,1 C 13,0 C 84 % 1005,3 hPa 0,0 mm 0,0 km/h (0 Bft) NW 315 10,5 C 0,0 km/h (0 Bft)
26.07.2015 23:45 13,2 C 13,0 C 84 % 1005,3 hPa 0,0 mm 0,5 km/h (0 Bft) W-SW 247 10,6 C 3,1 km/h (1 Bft)
26.07.2015 23:50 13,1 C 13,0 C 84 % 1005,0 hPa 0,0 mm 0,5 km/h (0 Bft) N-NO 22 10,5 C 0,0 km/h (0 Bft)
26.07.2015 23:55 13,1 C 12,9 C 84 % 1005,0 hPa 0,0 mm 0,3 km/h (0 Bft) W 270 10,5 C 0,0 km/h (0 Bft)
_ Min-Zeit 06:35 06:35 15:45 23:55 - 23:40 - - 06:35 23:55
Minimum _ 8,1 C 8,0 C 50 % 1005,0 hPa - 0,0 km/h (0 Bft) - - 4,3 C 0,0 km/h (0 Bft)
_ Max-Zeit 15:40 15:45 23:55 10:25 22:55 13:50 - - 20:30 13:20
Maximum _ 20,8 C 25,5 C 84 % 1013,4 hPa 0,7 mm 12,7 km/h
N-NO (3 Bft)
- - 11,2 C 25,6 km/h
NO (4 Bft)
Durchschnitt _ 15,6 C 17,7 C 63 % 1010,0 hPa #2,1 mm 3,7 km/h (1 Bft) NO - 8,3 C 5,1 km/h (1 Bft)